Location: Marne
(34.0056°N, 117.9064°W)
Time: 14:18:38
(UTC+00:00)

H-2A R/B - Pass Details

Date: 18 January 2020
Orbit: 503 x 540 km, 97.3° (Epoch: 21 February)

Event Time Altitude Azimuth Distance (km) Brightness Sun altitude
Rises 01:33:11 0° 176° (S) 2,620 6.5 -5.8°
Reaches altitude 10° 01:35:17 10° 180° (S) 1,744 5.7 -6.2°
Maximum altitude 01:38:59 59° 260° (W) 609 3.5 -6.9°
Drops below altitude 10° 01:42:47 10° 340° (NNW) 1,778 5.4 -7.7°
Sets 01:44:56 0° 345° (NNW) 2,678 6.3 -8.1°
